This is the latest recevied weather packets stored in our database for station/object OK2ILA-10. If no packets are shown the sender has not sent any weather packets the latest 10 day(s).
| Time | Temp. | Humidity | Pressure | Rain* | Wind** | Luminosity | Snow |
|---|---|---|---|---|---|---|---|
| 1788441124 | 22.78° C | 45% | 1019.7 hPa | - | - | - | - |
| 1788441120 | 22.78° C | 45% | 1019.7 hPa | - | - | - | - |
| 1788440524 | 22.78° C | 45% | 1019.7 hPa | - | - | - | - |
| 1788440520 | 22.78° C | 45% | 1019.7 hPa | - | - | - | - |
| 1788439923 | 22.78° C | 45% | 1019.9 hPa | - | - | - | - |
| 1788439920 | 22.78° C | 45% | 1019.9 hPa | - | - | - | - |
| 1788439323 | 23.33° C | 46% | 1019.6 hPa | - | - | - | - |
| 1788439319 | 23.33° C | 46% | 1019.6 hPa | - | - | - | - |
| 1788438723 | 23.33° C | 45% | 1019.8 hPa | - | - | - | - |
| 1788438719 | 23.33° C | 45% | 1019.8 hPa | - | - | - | - |
| 1788438123 | 23.33° C | 45% | 1019.8 hPa | - | - | - | - |
| 1788438119 | 23.33° C | 45% | 1019.8 hPa | - | - | - | - |
| 1788437519 | 23.89° C | 47% | 1020.1 hPa | - | - | - | - |
| 1788436922 | 23.33° C | 47% | 1020.1 hPa | - | - | - | - |
| 1788436919 | 23.33° C | 47% | 1020.1 hPa | - | - | - | - |
| 1788436322 | 22.78° C | 47% | 1020.2 hPa | - | - | - | - |
| 1788436318 | 22.78° C | 47% | 1020.2 hPa | - | - | - | - |
| 1788435718 | 22.22° C | 49% | 1020.3 hPa | - | - | - | - |
| 1788435122 | 21.67° C | 50% | 1020.4 hPa | - | - | - | - |
| 1788435118 | 21.67° C | 50% | 1020.4 hPa | - | - | - | - |
| 1788434522 | 22.78° C | 49% | 1020.2 hPa | - | - | - | - |
| 1788434518 | 22.78° C | 49% | 1020.2 hPa | - | - | - | - |
| 1788433917 | 23.33° C | 49% | 1020.2 hPa | - | - | - | - |
| 1788433321 | 23.89° C | 49% | 1020.2 hPa | - | - | - | - |
| 1788433317 | 23.89° C | 49% | 1020.2 hPa | - | - | - | - |
* Rain since midnight (hover to see other rain measurements)
** Current wind speed in m/s (hover to see current wind gust speed)